FLYING LAPTOP

Last updated on Wed Sep 09 2026 00:03:36 GMT+0000 (Coordinated Universal Time)

1 42831U 17042G 26251.62806902 .00002074 00000+0 16419-3 0 9997 2 42831 97.4990 44.1606 0015891 197.7327 162.3346 15.01565622498974
UTC large
Height (km)
Speed (km/s)
/
Latitude / Longitude
Inclination (degrees)
Orbital Period (minutes)
Azimuth
Elevation
Range (km)
Doppler Factor

Next 0 passes for location: London (51.5072 / 0.1276)

No passes found over London.
FLYING LAPTOP